FW4468 Weather Reports


Display with metric or nautical units.
time (UTC)temp
F
wind
direction
speed
MPH
gust
MPH
rain 1hr
in
rain 24hr
in
rain mn
in
humidity
%
barometer
mb
20260903050051 56 118 1.0 11.0 0.00 0.21 0.21 67 1005.7
20260903044555 56 152 1.0 8.0 0.00 0.21 0.21 67 1005.5
20260903043049 56 240 0.0 4.0 0.00 0.21 0.21 67 1005.2
20260903041548 57 17 0.0 7.0 0.00 0.21 0.21 68 1005.3
20260903040047 57 74 0.0 7.0 0.00 0.21 0.21 68 1005.2
20260903034546 57 298 1.0 5.0 0.00 0.21 0.21 68 1005.0
20260903033050 57 70 0.0 9.0 0.00 0.21 0.21 68 1004.9
20260903031550 57 101 2.0 10.0 0.00 0.21 0.21 68 1004.6
20260903030107 57 151 4.0 11.0 0.00 0.21 0.21 68 1004.5
20260903024543 57 209 2.0 8.0 0.00 0.21 0.21 68 1004.0
20260903023042 58 204 1.0 10.0 0.00 0.21 0.21 67 1003.9
20260903021540 58 119 1.0 10.0 0.00 0.21 0.21 66 1003.7
20260903020040 58 197 3.0 9.0 0.00 0.21 0.21 65 1003.5
20260903014539 59 179 6.0 14.0 0.00 0.21 0.21 65 1003.5
20260903013044 59 211 3.0 14.0 0.00 0.21 0.21 66 1003.3
20260903011540 59 107 6.0 16.0 0.00 0.21 0.21 65 1003.0
20260903010039 59 208 5.0 17.0 0.00 0.21 0.21 67 1002.8
20260903004536 59 148 2.0 10.0 0.00 0.21 0.21 78 1002.8
20260903003039 58 59 0.0 12.0 0.00 0.21 0.21 75 1002.8
20260903001532 58 56 1.0 8.0 0.00 0.21 0.21 75 1002.5
20260903000031 57 164 1.0 16.0 0.02 0.21 0.21 75 1002.7
20260902234530 57 199 1.0 9.0 0.05 0.21 0.21 74 1002.6
20260902233029 57 73 2.0 8.0 0.08 0.21 0.21 72 1002.6
20260902231531 57 5 1.0 11.0 0.10 0.21 0.21 71 1002.9
20260902230024 58 119 1.0 12.0 0.10 0.19 0.19 70 1003.2
20260902224542 58 132 1.0 6.0 0.06 0.15 0.15 70 1003.4
20260902223021 58 159 0.0 4.0 0.05 0.12 0.12 69 1003.4
20260902221524 59 200 0.0 3.0 0.05 0.11 0.11 69 1003.6
20260902220043 59 219 0.0 3.0 0.04 0.09 0.09 68 1003.5
20260902214518 60 275 0.0 9.0 0.03 0.08 0.08 68 1003.7
20260902213017 60 158 0.0 8.0 0.02 0.07 0.07 67 1003.8
20260902211517 61 205 3.0 11.0 0.01 0.06 0.06 65 1003.8
20260902210021 62 262 3.0 9.0 0.00 0.05 0.05 65 1003.7
20260902204522 62 251 2.0 11.0 0.00 0.05 0.05 66 1003.7
20260902203015 62 219 1.0 11.0 0.01 0.05 0.05 65 1003.6
20260902201534 63 227 2.0 7.0 0.05 0.05 0.05 66 1003.6
20260902200015 63 234 0.0 3.0 0.05 0.05 0.05 69 1003.7
20260902194527 62 180 0.0 7.0 0.05 0.05 0.05 68 1003.8
20260902193113 64 238 4.0 12.0 0.04 0.04 0.04 62 1004.2
20260902191511 66 167 2.0 8.0 0.00 0.00 0.00 53 1003.7
20260902190013 67 150 0.0 10.0 0.00 0.00 0.00 52 1003.8
20260902184514 67 144 2.0 10.0 0.00 0.00 0.00 53 1003.9
20260902183004 64 169 1.0 6.0 0.00 0.00 0.00 60 1004.1
20260902181501 63 159 1.0 6.0 0.00 0.00 0.00 61 1004.4
20260902180104 62 165 1.0 6.0 0.00 0.00 0.00 62 1004.4
20260902174558 63 205 0.0 5.0 0.00 0.00 0.00 62 1004.6
20260902173108 62 178 1.0 7.0 0.00 0.00 0.00 63 1004.7
20260902171559 62 163 0.0 8.0 0.00 0.00 0.00 62 1004.8
20260902170054 62 156 2.0 5.0 0.00 0.00 0.00 62 1004.8
20260902164601 62 195 0.0 6.0 0.00 0.00 0.00 63 1005.1
20260902163100 62 212 0.0 3.0 0.00 0.00 0.00 63 1005.0
20260902161552 62 163 0.0 7.0 0.00 0.00 0.00 63 1005.2
20260902160057 62 204 1.0 4.0 0.00 0.00 0.00 62 1005.3
20260902154550 62 182 2.0 7.0 0.00 0.00 0.00 62 1005.3
20260902153053 61 182 2.0 9.0 0.00 0.00 0.00 62 1005.3
20260902151545 61 271 3.0 9.0 0.00 0.00 0.00 63 1005.6
20260902150040 60 114 0.0 10.0 0.00 0.00 0.00 65 1005.8
20260902144540 59 192 1.0 8.0 0.00 0.00 0.00 65 1006.0
20260902143038 59 95 1.0 11.0 0.00 0.00 0.00 66 1006.1
20260902141537 59 111 0.0 7.0 0.00 0.00 0.00 66 1006.1
20260902140035 59 171 0.0 11.0 0.00 0.00 0.00 66 1006.1
20260902134542 59 242 1.0 11.0 0.00 0.00 0.00 66 1006.3
20260902133035 59 161 1.0 14.0 0.00 0.00 0.00 66 1006.1
20260902131540 59 158 2.0 11.0 0.00 0.00 0.00 65 1006.3
20260902130033 59 162 0.0 7.0 0.00 0.00 0.00 66 1006.4
20260902124530 59 213 2.0 8.0 0.00 0.00 0.00 67 1006.6
20260902123033 59 264 2.0 8.0 0.00 0.00 0.00 67 1006.6
20260902121527 59 136 1.0 6.0 0.00 0.00 0.00 67 1006.6
20260902120026 59 79 2.0 6.0 0.00 0.00 0.00 67 1006.7
20260902114528 59 138 0.0 9.0 0.00 0.00 0.00 68 1006.9
20260902113023 59 152 2.0 8.0 0.00 0.00 0.00 68 1007.0
20260902111522 59 129 2.0 7.0 0.00 0.00 0.00 68 1006.9
20260902110033 59 153 0.0 5.0 0.00 0.00 0.00 68 1007.1
20260902104519 59 132 2.0 9.0 0.00 0.00 0.00 69 1007.2
20260902103020 58 60 0.0 3.0 0.00 0.00 0.00 68 1007.4
20260902101518 58 84 0.0 6.0 0.00 0.00 0.00 68 1007.4
20260902100017 58 142 0.0 6.0 0.00 0.00 0.00 68 1007.4
20260902094522 58 63 1.0 7.0 0.00 0.00 0.00 68 1007.5
20260902093020 58 150 0.0 7.0 0.00 0.00 0.00 68 1007.5
20260902091512 59 152 1.0 7.0 0.00 0.00 0.00 68 1007.6
20260902090011 59 170 0.0 8.0 0.00 0.00 0.00 67 1007.9
20260902084518 59 134 0.0 8.0 0.00 0.00 0.00 66 1008.0
20260902083009 59 119 0.0 5.0 0.00 0.00 0.00 67 1008.2
20260902081507 59 185 0.0 8.0 0.00 0.00 0.00 67 1008.2
20260902080006 59 150 1.0 8.0 0.00 0.00 0.00 67 1008.2
20260902074504 59 179 1.0 8.0 0.00 0.00 0.00 67 1008.2
20260902073002 59 171 1.0 10.0 0.00 0.00 0.00 66 1007.9
20260902071502 60 178 1.0 9.0 0.00 0.00 0.00 66 1007.9
20260902070058 60 76 1.0 7.0 0.00 0.00 0.00 67 1007.8
20260902064558 60 107 0.0 10.0 0.00 0.00 0.00 66 1007.9
20260902063058 60 169 1.0 9.0 0.00 0.00 0.00 66 1007.8
20260902060100 60 144 0.0 6.0 0.00 0.00 0.00 67 1008.0
20260902054610 60 53 0.0 5.0 0.00 0.00 0.00 66 1008.1
20260902053104 60 138 1.0 7.0 0.00 0.00 0.00 66 1008.3
20260902051553 61 154 1.0 5.0 0.00 0.00 0.00 65 1008.3